Amsterdam, Netherlands

6:22 AM CET on December 16, 2019 (GMT +0100)
Schiphol

Weather History for EHAM - October, 2019

Change the Weather History Date:

Saturday, October 12, 2019

  Actual Average Record
Temperature  
Mean Temperature 53 °F -  
Max Temperature 55 °F 53 °F 71 °F (2018)
Min Temperature 51 °F 43 °F 35 °F (2015)
Degree Days  
Heating Degree Days 12    
Growing Degree Days 3 (Base 50)    
Moisture  
Dew Point 53 °F    
Average Humidity 94    
Maximum Humidity 100    
Minimum Humidity 75    
Precipitation  
Precipitation 0.16 in - - ()
Sea Level Pressure  
Sea Level Pressure 29.77 in    
Wind  
Wind Speed 11 mph ()    
Max Wind Speed 22 mph    
Max Gust Speed -    
Visibility 4.3 miles    
Events Rain    
Averages and records for this station are not official NWS values.
T = Trace of Precipitation, MM = Missing Value Source: Averaged Metar Reports

Daily Weather History Graph

Daily Weather History Graph

Search for Another Location

Airport or City:

Astronomy

Oct. 12, 2019 Rise Set
Actual Time 8:00 AM CEST 6:53 PM CEST
Civil Twilight 7:25 AM CEST 7:28 PM CEST
Nautical Twilight 6:46 AM CEST 8:07 PM CEST
Astronomical Twilight 6:06 AM CEST 8:46 PM CEST
Moon 6:59 PM CEST (10/12) 6:01 AM CEST (10/12)
Length of Visible Light 12h 02m
Length of Day
10h 53m
Waxing Gibbous, 98% of the Moon is Illuminated
Oct 12
Waxing Gibbous
Oct 13
Full
Oct 21
Last Quarter
Oct 28
New
Nov 4
First Quarter

Hourly Weather History & Observations

Time (CEST) Temp. Dew Point Humidity Pressure Visibility Wind Dir Wind Speed Gust Speed Precip Events Conditions
12:00 AM 60 °F 57 °F 85% 29.70 in 12 mi SW 22.4 mph - - Rain Drizzle
12:25 AM 60.8 °F 57.2 °F 88% 29.68 in 6.2 mi SW 21.9 mph - N/A   Mostly Cloudy
12:55 AM 60.8 °F 55.4 °F 82% 29.68 in 6.2 mi SSW 20.7 mph - N/A   Mostly Cloudy
1:00 AM 61 °F 56 °F 78% 29.70 in 9 mi SSW 22.4 mph - - Rain Light Rain
1:25 AM 60.8 °F 55.4 °F 82% 29.68 in 6.2 mi SSW 21.9 mph - N/A   Mostly Cloudy
1:55 AM 60.8 °F 55.4 °F 82% 29.68 in 6.2 mi SW 21.9 mph - N/A Rain Light Rain
2:00 AM 61 °F 55 °F 75% 29.70 in 28 mi SW 20.1 mph - - Rain Rain
2:25 AM 55.4 °F 53.6 °F 94% 29.71 in 4.3 mi West 18.4 mph - N/A Rain Rain
2:55 AM 55.4 °F 53.6 °F 94% 29.71 in - West 13.8 mph - N/A   Drizzle
3:25 AM 55.4 °F 53.6 °F 94% 29.71 in 2.8 mi West 11.5 mph - N/A   Drizzle
3:55 AM 53.6 °F 53.6 °F 100% 29.71 in 2.8 mi West 10.4 mph - N/A   Drizzle
4:00 AM 54 °F 53 °F 95% 29.72 in 3 mi West 8.9 mph - - Rain Drizzle
4:25 AM 55.4 °F 53.6 °F 94% 29.71 in 2.5 mi WSW 9.2 mph - N/A   Drizzle
4:55 AM 53.6 °F 53.6 °F 100% 29.71 in 3.1 mi West 10.4 mph - N/A Rain Drizzle
5:00 AM 54 °F 53 °F 95% 29.72 in 3 mi WNW 8.9 mph - - Rain Heavy Drizzle
5:25 AM 53.6 °F 53.6 °F 100% 29.71 in 2.2 mi West 6.9 mph - N/A   Drizzle
5:55 AM 53.6 °F 53.6 °F 100% 29.71 in 2.2 mi West 6.9 mph - N/A   Drizzle
6:00 AM 54 °F 53 °F 95% 29.73 in 2 mi West 6.7 mph - - Rain Heavy Drizzle
6:25 AM 53.6 °F 53.6 °F 100% 29.71 in 2.5 mi West 5.8 mph - N/A   Light Drizzle
6:55 AM 53.6 °F 53.6 °F 100% 29.71 in 2.2 mi West 6.9 mph - N/A   Drizzle
7:00 AM 54 °F 53 °F 95% 29.73 in 2 mi West 8.9 mph - - Rain Heavy Drizzle
7:25 AM 53.6 °F 53.6 °F 100% 29.71 in - West 8.1 mph - N/A   Drizzle
7:55 AM 53.6 °F 53.6 °F 100% 29.71 in - West 8.1 mph - N/A   Light Drizzle
8:00 AM 54 °F 53 °F 95% 29.74 in 2 mi West 8.9 mph - - Rain Drizzle
8:25 AM 53.6 °F 53.6 °F 100% 29.74 in 2.2 mi WSW 6.9 mph - N/A   Light Drizzle
8:55 AM 55.4 °F 53.6 °F 94% 29.74 in 6.2 mi WSW 9.2 mph - N/A   Scattered Clouds
9:25 AM 55.4 °F 51.8 °F 88% 29.74 in 6.2 mi SW 10.4 mph - N/A   Mostly Cloudy
9:55 AM 55.4 °F 51.8 °F 88% 29.74 in 5.6 mi SW 10.4 mph - N/A   Light Drizzle
10:25 AM 55.4 °F 53.6 °F 94% 29.77 in 5.6 mi SW 10.4 mph - N/A   Light Drizzle
10:55 AM 55.4 °F 51.8 °F 88% 29.77 in 6.2 mi SSW 9.2 mph - N/A   Light Drizzle
11:25 AM 55.4 °F 51.8 °F 88% 29.80 in 6.2 mi SSW 8.1 mph - N/A   Overcast
11:55 AM 55.4 °F 51.8 °F 88% 29.80 in 5.6 mi SSW 8.1 mph - N/A   Light Drizzle
12:00 PM 55 °F 51 °F 83% 29.81 in 4 mi SSW 6.7 mph - - Rain Light Rain Showers
12:25 PM 55.4 °F 50.0 °F 82% 29.80 in 6.2 mi SW 6.9 mph - N/A   Light Drizzle
12:55 PM 55.4 °F 51.8 °F 88% 29.80 in 3.7 mi SSW 8.1 mph - N/A   Light Drizzle
1:00 PM 54 °F 52 °F 90% 29.82 in 3 mi SSW 8.9 mph - - Rain Light Rain Showers
1:25 PM 55.4 °F 51.8 °F 88% 29.80 in 6.2 mi SSW 6.9 mph - N/A   Overcast
1:55 PM 55.4 °F 51.8 °F 88% 29.83 in 5.0 mi SW 9.2 mph - N/A   Light Drizzle
2:00 PM 55 °F 52 °F 84% 29.83 in 6 mi WSW 8.9 mph - - Rain Rain
2:25 PM 53.6 °F 51.8 °F 94% 29.83 in 5.6 mi WSW 9.2 mph - N/A   Light Drizzle
2:55 PM 53.6 °F 51.8 °F 94% 29.83 in 6.2 mi SSW 8.1 mph - N/A   Light Drizzle
3:25 PM 53.6 °F 51.8 °F 94% 29.83 in 6.2 mi South 8.1 mph - N/A Rain Light Rain
3:55 PM 53.6 °F 51.8 °F 94% 29.83 in 5.6 mi South 8.1 mph - N/A Rain Light Rain
4:00 PM 53 °F 51 °F 92% 29.83 in 9 mi South 8.9 mph - -   Partly Cloudy
4:25 PM 53.6 °F 51.8 °F 94% 29.83 in 3.7 mi South 9.2 mph - N/A Rain Rain
4:55 PM 53.6 °F 51.8 °F 94% 29.80 in 4.3 mi South 6.9 mph - N/A Rain Light Drizzle
5:25 PM 51.8 °F 51.8 °F 100% 29.80 in 3.1 mi SSE 5.8 mph - N/A Rain Rain
5:55 PM 51.8 °F 51.8 °F 100% 29.80 in 2.2 mi SSE 3.5 mph - N/A   Drizzle
6:00 PM 52 °F 51 °F 97% 29.82 in 2 mi SSE 2.2 mph - - Rain Heavy Drizzle
6:25 PM 51.8 °F 51.8 °F 100% 29.80 in - SE 2.3 mph - N/A   Drizzle
6:55 PM 51.8 °F 51.8 °F 100% 29.80 in 2.2 mi ESE 2.3 mph - N/A   Drizzle
7:25 PM 51.8 °F 51.8 °F 100% 29.80 in 3.7 mi Variable 2.3 mph - N/A   Light Drizzle
7:55 PM 51.8 °F 51.8 °F 100% 29.80 in 5.0 mi East 3.5 mph - N/A   Light Drizzle
8:00 PM 52 °F 52 °F 99% 29.82 in 5 mi East 4.5 mph - - Rain Drizzle
8:25 PM 51.8 °F 51.8 °F 100% 29.80 in 2.5 mi Variable 2.3 mph - N/A   Light Drizzle
8:55 PM 53.6 °F 51.8 °F 94% 29.80 in 2.5 mi SSE 2.3 mph - N/A   Light Drizzle
9:25 PM 51.8 °F 51.8 °F 100% 29.83 in 2.5 mi SSE 3.5 mph - N/A   Light Drizzle
9:55 PM 51.8 °F 51.8 °F 100% 29.83 in 2.8 mi SE 4.6 mph - N/A   Light Drizzle
10:00 PM 52 °F 52 °F 99% 29.83 in 3 mi SE 4.5 mph - - Rain Heavy Drizzle
10:25 PM 51.8 °F 51.8 °F 100% 29.83 in 4.3 mi ESE 4.6 mph - N/A   Light Drizzle
11:00 PM 52 °F 52 °F 98% 29.83 in 3 mi East 4.5 mph - - Rain Drizzle
11:25 PM 51.8 °F 51.8 °F 100% 29.83 in 2.5 mi East 4.6 mph - N/A   Light Drizzle
11:55 PM 51.8 °F 51.8 °F 100% 29.83 in 2.8 mi ENE 3.5 mph - N/A   Light Drizzle